• In Czech Republic
  • List of Countries
  • For 7 days
  • Water Temperature
  • Satellite Maps
  • Weather Map
  • Weather Widgets
  • user-avatar
    Login

    Hourly Weather Mayrhofen

    Today, 19 September, Wednesday

    Time Temperature Precipitation Wind Pressure Humidity
    00:00 +9°C° 0.2 mm 1 mps 621 mmHg 91%
    01:00 +9°C° 0.2 mm 1 mps 621 mmHg 91%
    02:00 +9°C° 0 mm 1 mps 621 mmHg 91%
    03:00 +8°C° 0 mm 1 mps 621 mmHg 91%
    04:00 +8°C° 0 mm 1 mps 620 mmHg 91%
    05:00 +8°C° 0 mm 1 mps 621 mmHg 90%
    06:00 +9°C° 0 mm 1 mps 621 mmHg 88%
    07:00 +10°C° 0 mm 1 mps 622 mmHg 87%
    08:00 +12°C° 0 mm 1 mps 623 mmHg 77%
    09:00 +15°C° 0 mm 1 mps 624 mmHg 66%
    10:00 +19°C° 0 mm 1 mps 625 mmHg 56%
    11:00 +19°C° 0.1 mm 1 mps 625 mmHg 53%
    12:00 +20°C° 0.1 mm 1 mps 625 mmHg 49%
    13:00 +21°C° 0.1 mm 1 mps 625 mmHg 46%
    14:00 +19°C° 0.2 mm 2 mps 625 mmHg 49%
    15:00 +19°C° 0.2 mm 2 mps 625 mmHg 51%
    16:00 +18°C° 0.2 mm 2 mps 624 mmHg 54%
    17:00 +16°C° 0.1 mm 2 mps 624 mmHg 65%
    18:00 +13°C° 0.1 mm 1 mps 623 mmHg 76%
    19:00 +11°C° 0.1 mm 1 mps 622 mmHg 87%
    20:00 +10°C° 0 mm 1 mps 622 mmHg 88%
    21:00 +10°C° 0 mm 1 mps 622 mmHg 90%
    22:00 +9°C° 0 mm 1 mps 622 mmHg 91%
    23:00 +9°C° 0 mm 1 mps 622 mmHg 90%

    Tomorrow, 20 September, Thursday

    Time Temperature Precipitation Wind Pressure Humidity
    00:00 +9°C° 0 mm 1 mps 622 mmHg 90%
    01:00 +8°C° 0 mm 1 mps 622 mmHg 89%
    02:00 +8°C° 0 mm 1 mps 621 mmHg 89%
    03:00 +8°C° 0 mm 1 mps 621 mmHg 88%
    04:00 +8°C° 0 mm 1 mps 621 mmHg 87%
    05:00 +8°C° 0 mm 1 mps 621 mmHg 86%
    06:00 +9°C° 0 mm 1 mps 622 mmHg 84%
    07:00 +10°C° 0 mm 1 mps 622 mmHg 82%
    08:00 +13°C° 0 mm 1 mps 623 mmHg 70%
    09:00 +14°C° 0 mm 0 mps 624 mmHg 59%
    10:00 +17°C° 0 mm 0 mps 625 mmHg 47%
    11:00 +18°C° 0 mm 0 mps 625 mmHg 44%
    12:00 +20°C° 0 mm 1 mps 625 mmHg 41%
    13:00 +21°C° 0 mm 1 mps 625 mmHg 39%
    14:00 +21°C° 0.1 mm 1 mps 625 mmHg 41%
    15:00 +20°C° 0.1 mm 1 mps 624 mmHg 44%
    16:00 +20°C° 0.1 mm 1 mps 624 mmHg 47%
    17:00 +16°C° 0 mm 1 mps 623 mmHg 60%
    18:00 +14°C° 0 mm 1 mps 622 mmHg 72%
    19:00 +11°C° 0 mm 1 mps 621 mmHg 84%
    20:00 +11°C° 0 mm 1 mps 621 mmHg 85%
    21:00 +9°C° 0 mm 2 mps 621 mmHg 85%
    22:00 +9°C° 0 mm 2 mps 621 mmHg 85%
    23:00 +9°C° 0 mm 2 mps 620 mmHg 85%

    Day after tomorrow, 21 September, Friday

    Time Temperature Precipitation Wind Pressure Humidity
    00:00 +9°C° 0 mm 2 mps 620 mmHg 86%
    01:00 +9°C° 0 mm 2 mps 620 mmHg 87%
    02:00 +8°C° 0 mm 2 mps 620 mmHg 88%
    03:00 +8°C° 0 mm 2 mps 619 mmHg 89%
    04:00 +8°C° 0 mm 2 mps 619 mmHg 90%
    05:00 +8°C° 0 mm 2 mps 619 mmHg 89%
    06:00 +9°C° 0 mm 2 mps 619 mmHg 88%
    07:00 +9°C° 0 mm 2 mps 619 mmHg 87%
    08:00 +13°C° 0 mm 2 mps 620 mmHg 76%
    09:00 +15°C° 0 mm 2 mps 621 mmHg 65%
    10:00 +18°C° 0 mm 2 mps 622 mmHg 53%
    11:00 +19°C° 0 mm 2 mps 622 mmHg 50%
    12:00 +20°C° 0 mm 2 mps 622 mmHg 46%
    13:00 +20°C° 0 mm 2 mps 622 mmHg 43%
    14:00 +20°C° 0 mm 2 mps 621 mmHg 46%
    15:00 +19°C° 0 mm 2 mps 620 mmHg 49%
    16:00 +19°C° 0 mm 3 mps 619 mmHg 53%
    17:00 +17°C° 0 mm 2 mps 619 mmHg 62%
    18:00 +15°C° 0 mm 2 mps 618 mmHg 72%
    19:00 +13°C° 0 mm 2 mps 618 mmHg 82%
    20:00 +12°C° 0.3 mm 2 mps 618 mmHg 87%
    21:00 +10°C° 0.3 mm 2 mps 618 mmHg 91%
    22:00 +9°C° 0.3 mm 2 mps 619 mmHg 95%
    23:00 +9°C° 0.9 mm 2 mps 619 mmHg 96%

    22 September, Saturday

    Time Temperature Precipitation Wind Pressure Humidity
    00:00 +8°C° 0.9 mm 2 mps 619 mmHg 97%
    01:00 +8°C° 0.9 mm 1 mps 619 mmHg 97%
    02:00 +6°C° 1.7 mm 2 mps 619 mmHg 97%
    03:00 +5°C° 1.7 mm 2 mps 619 mmHg 97%
    04:00 +4°C° 1.7 mm 2 mps 619 mmHg 96%
    05:00 +4°C° 0.7 mm 2 mps 619 mmHg 95%
    06:00 +3°C° 0.7 mm 2 mps 619 mmHg 94%
    07:00 +3°C° 0.7 mm 2 mps 619 mmHg 93%
    08:00 +4°C° 0.1 mm 2 mps 619 mmHg 87%
    09:00 +5°C° 0.1 mm 2 mps 620 mmHg 82%
    10:00 +6°C° 0.1 mm 2 mps 620 mmHg 77%
    11:00 +7°C° 0 mm 2 mps 621 mmHg 71%
    12:00 +8°C° 0 mm 2 mps 621 mmHg 65%
    13:00 +10°C° 0 mm 2 mps 622 mmHg 58%
    14:00 +10°C° 0 mm 2 mps 622 mmHg 59%
    15:00 +9°C° 0 mm 2 mps 622 mmHg 59%
    16:00 +9°C° 0 mm 2 mps 622 mmHg 60%
    17:00 +7°C° 0 mm 2 mps 621 mmHg 68%
    18:00 +6°C° 0 mm 1 mps 621 mmHg 76%
    19:00 +4°C° 0 mm 1 mps 620 mmHg 85%
    20:00 +4°C° 0 mm 1 mps 620 mmHg 85%
    21:00 +3°C° 0 mm 1 mps 620 mmHg 86%
    22:00 +3°C° 0 mm 1 mps 620 mmHg 87%
    23:00 +3°C° 0 mm 1 mps 620 mmHg 85%

    23 September, Sunday

    Time Temperature Precipitation Wind Pressure Humidity
    00:00 +3°C° 0 mm 1 mps 620 mmHg 84%
    01:00 +3°C° 0 mm 1 mps 620 mmHg 82%
    02:00 +4°C° 0 mm 1 mps 620 mmHg 80%
    03:00 +4°C° 0 mm 1 mps 620 mmHg 77%
    04:00 +5°C° 0 mm 1 mps 619 mmHg 74%
    05:00 +6°C° 0 mm 1 mps 619 mmHg 75%
    06:00 +6°C° 0 mm 1 mps 619 mmHg 75%
    07:00 +6°C° 0 mm 2 mps 619 mmHg 76%
    08:00 +8°C° 0 mm 2 mps 620 mmHg 72%
    09:00 +10°C° 0 mm 2 mps 620 mmHg 68%
    10:00 +13°C° 0 mm 2 mps 620 mmHg 64%
    11:00 +15°C° 0 mm 2 mps 620 mmHg 59%
    12:00 +17°C° 0 mm 3 mps 620 mmHg 55%
    13:00 +18°C° 0 mm 3 mps 620 mmHg 50%
    14:00 +18°C° 0 mm 3 mps 620 mmHg 52%
    15:00 +18°C° 0 mm 3 mps 619 mmHg 54%
    16:00 +17°C° 0 mm 3 mps 618 mmHg 56%
    17:00 +14°C° 0 mm 3 mps 616 mmHg 64%
    18:00 +11°C° 0 mm 3 mps 615 mmHg 72%
    19:00 +8°C° 0 mm 3 mps 613 mmHg 80%
    20:00 +7°C° 0.2 mm 4 mps 613 mmHg 82%
    21:00 +6°C° 0.2 mm 4 mps 612 mmHg 83%
    22:00 +5°C° 0.2 mm 4 mps 612 mmHg 85%
    23:00 +5°C° 2.2 mm 3 mps 611 mmHg 88%

    24 September, Monday

    Time Temperature Precipitation Wind Pressure Humidity
    00:00 +4°C° 2.2 mm 3 mps 611 mmHg 91%
    01:00 +3°C° 2.2 mm 3 mps 611 mmHg 94%
    02:00 +3°C° 2.7 mm 3 mps 611 mmHg 93%
    03:00 +2°C° 2.7 mm 3 mps 611 mmHg 93%
    04:00 +2°C° 2.7 mm 3 mps 610 mmHg 92%
    05:00 0°C° 0.1 mm 4 mps 611 mmHg 91%
    06:00 0°C° 0.1 mm 4 mps 611 mmHg 91%
    07:00 -1°C° 0.1 mm 4 mps 611 mmHg 90%
    08:00 0°C° 0.3 mm 4 mps 612 mmHg 86%
    09:00 0°C° 0.3 mm 4 mps 612 mmHg 81%
    10:00 +1°C° 0.3 mm 4 mps 613 mmHg 77%
    11:00 +1°C° 0.5 mm 4 mps 613 mmHg 77%
    12:00 +1°C° 0.5 mm 4 mps 614 mmHg 78%
    13:00 0°C° 0.5 mm 4 mps 614 mmHg 78%
    14:00 0°C° 1.1 mm 4 mps 614 mmHg 80%
    15:00 -1°C° 1.1 mm 4 mps 614 mmHg 81%
    16:00 -1°C° 1.1 mm 4 mps 615 mmHg 83%
    17:00 -2°C° 0.9 mm 4 mps 615 mmHg 85%
    18:00 -2°C° 0.9 mm 4 mps 615 mmHg 88%
    19:00 -2°C° 0.9 mm 3 mps 616 mmHg 90%
    20:00 -2°C° 1.5 mm 3 mps 616 mmHg 90%
    21:00 -2°C° 1.5 mm 3 mps 616 mmHg 90%
    22:00 -2°C° 1.5 mm 3 mps 617 mmHg 91%
    23:00 -2°C° 1.4 mm 3 mps 617 mmHg 91%
    Show more